Regional Weather Roundup
Issued by NWS San Diego, CA

Home | Current Version | Previous Version | Text Only | Print | Product List | Glossary On
Versions: 1 2 3 4 5 6 7 8 9 10 11 12 13 14 15 16 17 18 19 20 21 22 23 24 25 26 27 28 29 30 31 32 33 34 35 36 37 38 39 40 41 42 43 44 45 46 47 48 49 50
000
ASUS46 KSGX 130510
RWRSGX

SAN DIEGO HOURLY WEATHER ROUNDUP
NATIONAL WEATHER SERVICE SAN DIEGO CA
1000 PM PDT SAT JUL 12 2014

NOTE: "FAIR" INDICATES FEW OR NO CLOUDS BELOW 12,000 FEET WITH NO
SIGNIFICANT WEATHER AND/OR OBSTRUCTIONS TO VISIBILITY.

CAZ042-043-060-061-PZZ750-775-130600-

GREATER SAN DIEGO AREA

CITY           SKY/WX    TMP DP  RH WIND       PRES   REMARKS
LINDBERGH FLD  PTCLDY    70  61  73 NW5       29.97R
POINT LOMA       N/A     65  61  86 NW9         N/A
NATIONAL CITY    N/A     69  63  80 N1        29.96R
CHULA VISTA      N/A     69  64  84 CALM      29.89S
IMPERIAL BEACH CLEAR     68  63  84 NW6       29.96R
BROWN FIELD    CLEAR     65  61  87 W3        29.96R
MIRAMAR MCAS   PTCLDY    66  60  81 NW5       29.96R
MONTGOMERY FLD CLEAR     68  61  78 NW5       29.96S

$$

NORTH SAN DIEGO COUNTY

CITY           SKY/WX    TMP DP  RH WIND       PRES   REMARKS
CAMP PENDLETON CLEAR     67  61  81 CALM      29.95R
OCEANSIDE AP   PTCLDY    65  60  84 CALM      29.94S
VISTA            N/A     68  62  83 CALM      29.93S
CARLSBAD       CLEAR     68  62  81 CALM      29.95R
DEL MAR          N/A     67  64  89 CALM      29.97R
LA JOLLA SCRIP   N/A     67  64  89 W2        29.93R
FALLBROOK        N/A     66  65  95 CALM      29.95S
ESCONDIDO        N/A     69  61  75 W3        29.96S
SAN MARCOS       N/A     68  62  81 CALM      29.93R
POWAY            N/A     67  61  80 CALM      29.96R
R. PENASQUITOS   N/A     66  62  85 CALM      29.95S

$$

EAST SAN DIEGO COUNTY

CITY           SKY/WX    TMP DP  RH WIND       PRES   REMARKS
RAMONA         CLEAR     66  57  72 W5        29.98R
SANTEE LAKES     N/A     67  62  82 CALM      29.96R
GILLESPIE FLD  FAIR      68  61  77 W7        29.97S
LA MESA          N/A     67  62  84 CALM      29.90R
JAMUL            N/A     67  61  80 CALM      29.94R
DESCANSO N       N/A     66  53  62 W2        29.82R
MT. LAGUNA OBS   N/A     69  40  34 N3        29.78R
CAMPO            N/A     67  55  65 CALM      29.99R

$$

ORANGE COUNTY AND THE LOS ANGELES BASIN

CITY           SKY/WX    TMP DP  RH WIND       PRES   REMARKS
JOHN WAYNE AP  MOCLDY    71  63  75 SW3       29.95R
LAGUNA BEACH     N/A     68  64  86 CALM      29.91R
LAKE FOREST FR   N/A     67  59  74 CALM      29.85R
SANTA ANA        N/A     72  65  78 CALM      29.90R
HUNTINGTON BCH   N/A     67  64  89 W3        29.96R
FULLERTON      CLEAR     72  59  63 NW3       29.94R
LONG BEACH     CLEAR     70  60  70 NW5       29.94R
L.A. AP        PTCLDY    69  61  75 W7        29.95R
L.A. DOWNTOWN  PTCLDY    69  60  73 CALM      29.94R

$$

THE INLAND EMPIRE

CITY           SKY/WX    TMP DP  RH WIND       PRES   REMARKS
CORONA         CLEAR     72  60  65 CALM      29.95R HAZE
CHINO          CLEAR     70  60  70 W6        29.96R
ONTARIO        MOCLDY    75  59  57 W7        29.96R
RIVERSIDE AP   CLEAR     75  58  55 W6        29.96R
RIV CYN CREST    N/A     76  64  67 W1        29.94R
MORENO VALLEY    N/A     74  62  65 CALM      28.06R
HORSETHIEF CYN   N/A     74  54  49 CALM      29.95S
PERRIS           N/A     75  60  57 CALM        N/A
MENIFEE          N/A     74  62  66 SE2       30.03R
HEMET EAST       N/A     75  55  51 CALM      29.93R
FRENCH VALLEY  FAIR      70  57  64 CALM      29.98R
TEMECULA         N/A     70  60  69 S2        29.94R

$$

SAN BERNARDINO AND RIVERSIDE COUNTY MOUNTAINS

CITY           SKY/WX    TMP DP  RH WIND       PRES   REMARKS
BIG BEAR AP    CLEAR     59  27  29 CALM      30.33R
BIG BEAR SHEA    N/A     58  24  26 CALM      29.97R
ANGELUS OAKS     N/A     66  37  33 MISG      29.83R
PINE COVE        N/A     69  40  34 CALM      29.93R

$$

SOUTHERN DESERT INCLUDING THE COACHELLA VALLEY

CITY           SKY/WX    TMP DP  RH WIND       PRES   REMARKS
PALM SPRINGS   CLEAR     94  54  25 NW15      29.83R
THOUSAND PALMS   N/A     91  56  30 NW12      29.79R
PALM DESERT      N/A     93  59  31 CALM      29.64S
THERMAL        CLEAR     94  55  26 NW7       29.76R
BLYTHE         CLEAR    101  41  12 W9        29.77R HX  96
IMPERIAL AP    CLEAR     87  56  34 W8        29.76R
EL CENTRO NAS  CLEAR     93  53  25 SW10      29.76R
YUMA AZ        CLEAR     97  44  16 NW6       29.78R
MEXICALI       CLEAR     97  39  13 SW3       29.77R

$$

UPPER DESERT

CITY           SKY/WX    TMP DP  RH WIND       PRES   REMARKS
VICTORVILLE AP PTCLDY    82  46  28 SW8       30.03R
HESPERIA         N/A     78  51  38 CALM      29.98R
APPLE VALLEY     N/A     82  45  27 CALM      30.09R
GRAY BUTTE AP  NOT AVBL
PALMDALE       CLEAR     80  47  31 SW9       30.01R
LANCASTER      CLEAR     79  50  36 W13       29.99R
DAGGETT        PTCLDY    90  37  15 NW5       29.92R
29 PALMS N     CLEAR     90  37  15 VRB3      30.00R
NEEDLES        CLEAR     99  43  14 W14       29.81R HX  95

$$

REGIONAL REPORTS

CITY           SKY/WX    TMP DP  RH WIND       PRES   REMARKS
SANTA BARBARA  PTCLDY    70  63  78 SE7       29.90R
SANDBERG       PTCLDY    73  47  39 N20       30.17R
MT. WILSON       N/A     68  36  30 N2          N/A
LAS VEGAS NV   MOCLDY    98  41  14 SW7       29.88R
PHOENIX AZ     CLOUDY    97  59  28 SE6       29.84R HX  96
TIJUANA        CLEAR     66  59  77 W6        29.99R
ENSENADA NW      N/A     67  32  26 SE3       29.93R

$$

OFFSHORE ISLANDS

CITY           SKY/WX    TMP DP  RH WIND       PRES   REMARKS
CATALINA ARPT  CLEAR     64  52  64 CALM      29.99R
SAN NICOLAS IS CLOUDY   N/A N/A N/A W18       29.96R

$$

MARINE AND OFFSHORE BUOY REPORTS

STATION/POSITION SKY/WX   TEMP    WIND        PRES    SWELL
                          AIR SEA DIR/SP/G            HT/PER/DIR
                          (F)     (DEG/KT/KT) (MB)    (FT/S/D)
TANNER BANKS               62 63  320/ 17/ 21 1015.2R   3/270/13
S CLEMENTE BASIN           65 69  310/ 12/ 14 1014.2R   3/300/ 6
SO. S. ROSA ISLA           61 63  310/ 23/ 29 1013.4S
W. S. BARBARA CH           59 59  320/ 25/ 31 1013.5R   2/310/17
S. MONICA BASIN            67 72  280/  6/  6 1013.4R   3/270/ 6
S PEDRO CHANNEL               69                N/A
DANA POINT                    71                N/A     2/190/11
CMP PENDLETON NS              71                N/A     2/210/17
OCEANSIDE OFFSHR              71                N/A     2/230/17
TORREY PINES OTR              72                N/A     2/240/17
LA JOLLA 1                 69 70  310/  2/  5 1014.5R
MISSION BAY BUOY              69                N/A     2/220/17
SAN DIEGO BAY                 72              1014.8R
POINT LOMA SOUTH              70                N/A     2/220/17

$$




USA.gov is the U.S. government's official web portal to all federal, state and local government web resources and services.